Location: Nitra
(48.3167°N, 18.0833°E)
Time: 09:38:31
(UTC+01:00)

ISS - Pass Details

Date: 28 February 2019
Orbit: 406 x 411 km, 51.6° (Epoch: 21 March)

Event Time Altitude Azimuth Distance (km) Brightness Sun altitude
Exits shadow 03:57:49 16° 119° (ESE) 1,137 -1.1 -26.2°
Drops below altitude 10° 03:59:18 10° 94° (E) 1,465 -0.1 -25.9°
Sets 04:01:50 0° 74° (ENE) 2,330 1.4 -25.5°
